Wind_Speed
7 7 7 7 8 8 8 8 8 8 7 7 7 7 7 7 7 7 6 7 7 8 7 7 6 6 5 5 6 6 5 5 5 5 5 5 5 6 6 7 7 7 7
6 6 6 6 7 7 7 7 7 7 7 7 7 7 7 7 7 7 7 7 7 7 7 7 6 6 6 6 6 6 5 5 6 6 5 5 6 7 7 7 7 7 8
5 5 5 5 6 6 6 7 7 7 7 7 7 7 7 7 7 7 8 8 7 7 7 7 6 6 6 6 6 6 5 6 7 7 6 6 7 8 8 9 8 8 9
4 5 6 5 6 6 7 7 7 7 7 7 7 7 7 7 7 8 8 8 7 7 6 6 7 6 6 7 7 7 7 7 8 8 8 8 9 9 9 9 9 10 10
5 5 6 7 7 7 7 8 8 7 7 7 8 8 8 7 7 7 8 8 8 7 7 7 7 7 7 8 8 8 8 9 10 10 9 9 10 10 11 11 11 12 12
5 6 7 7 8 8 8 8 8 8 8 8 8 9 8 7 7 7 8 8 8 8 7 7 8 8 9 9 9 9 10 10 11 11 11 11 11 11 11 12 11 12 13
6 7 8 8 9 9 9 9 9 8 8 8 8 9 8 8 8 8 9 9 9 9 8 9 9 9 9 10 10 10 11 12 12 12 13 13 13 13 13 13 13 13 13
8 8 8 10 10 10 9 10 9 9 8 8 9 9 9 9 10 10 10 10 11 10 10 10 10 11 11 11 11 12 12 12 13 13 14 14 14 14 14 14 14 14 14
10 10 10 11 11 11 11 11 11 10 9 9 10 10 10 11 11 11 12 12 12 12 11 12 12 12 12 12 13 13 13 14 15 15 15 15 16 16 15 15 16 16 16
11 12 12 12 12 12 12 12 12 12 11 10 11 11 12 12 12 13 13 14 14 14 13 14 14 13 13 14 14 15 15 15 16 16 16 16 17 17 16 16 16 17 18
12 13 12 13 13 13 14 14 14 13 13 12 12 12 13 13 14 14 15 15 15 15 15 15 15 14 15 15 16 16 16 17 17 18 18 18 18 17 17 17 17 18 18
13 13 13 15 15 15 15 15 15 15 14 13 14 14 15 15 15 16 16 16 16 16 16 16 17 16 17 17 17 18 18 19 19 19 19 19 19 18 18 19 19 19 20
15 14 14 16 16 16 16 17 16 16 16 15 15 16 17 17 18 18 17 18 18 18 18 19 19 19 18 18 19 19 20 20 20 19 20 20 20 20 20 20 20 20 20
17 15 16 17 18 18 18 19 18 18 18 17 17 17 18 18 18 19 20 20 20 20 20 21 20 20 20 20 20 20 20 21 21 21 21 21 21 21 21 21 20 21 20
18 17 18 19 19 19 20 20 20 19 19 19 19 19 19 20 20 21 21 21 21 21 21 22 22 21 21 21 20 21 21 22 22 23 23 22 22 22 22 22 21 21 21
21 20 20 20 20 21 20 20 21 21 21 20 20 21 21 21 22 22 23 23 23 23 23 23 23 22 21 21 21 21 22 22 23 23 24 24 23 23 22 22 22 22 21
22 22 22 22 22 21 22 23 22 22 23 23 22 22 22 23 24 24 24 24 24 24 24 23 23 23 22 22 21 21 22 22 23 24 24 24 24 23 22 22 22 22 22
23 23 22 23 23 24 24 24 24 25 26 25 24 24 25 25 26 26 26 25 25 25 24 23 23 23 23 23 22 23 23 23 24 24 25 24 24 23 22 22 23 23 23
25 25 24 24 25 26 27 27 27 27 27 26 26 26 26 27 27 26 26 26 26 25 25 24 24 24 24 24 24 24 24 24 25 25 25 24 24 23 23 23 23 23 23
27 27 27 27 28 28 28 28 28 27 27 27 27 28 28 28 28 27 27 27 27 26 26 25 24 24 24 25 25 25 25 25 26 26 25 24 24 23 23 23 23 24 24
28 29 29 30 30 30 30 29 28 28 28 28 28 28 28 28 29 29 29 28 28 27 26 26 25 25 25 25 26 26 26 26 26 26 25 24 24 24 24 24 24 24 25
30 30 30 31 31 31 31 30 29 29 29 28 28 27 28 29 29 29 29 29 28 27 27 27 26 27 27 27 27 27 27 27 27 26 25 25 25 25 25 25 25 25 25
31 31 32 31 30 30 30 29 29 29 30 29 29 28 29 30 30 30 30 30 29 29 28 28 28 28 28 27 28 28 28 28 27 27 27 26 26 26 26 25 25 24 25
32 33 31 30 30 31 31 29 29 30 31 31 31 31 31 31 31 31 31 31 31 30 29 29 29 28 28 28 28 28 28 28 28 28 27 27 27 26 26 25 25 25 25
33 34 31 30 31 31 31 30 30 31 31 31 31 31 32 32 32 31 32 32 31 31 30 30 28 28 28 28 28 29 28 28 28 28 27 27 26 26 25 25 25 26 26
33 32 31 31 31 31 31 31 31 32 33 33 33 33 32 32 32 31 31 31 32 32 32 31 29 28 28 28 28 28 28 28 28 28 28 27 27 26 26 25 25 26 27
Wind_Direction
29 28 27 36 38 37 33 29 27 28 23 18 15 13 11 11 12 10 7 6 6 6 9 9 7 4 3 2 2 0 353 347 340 332 320 311 313 309 307 304 301 296 297
14 13 20 25 22 23 22 21 19 17 14 13 13 13 11 10 9 8 6 5 5 5 4 1 3 0 357 354 352 349 345 340 337 328 320 314 306 306 303 302 298 294 293
355 356 5 6 7 4 4 6 7 8 8 6 4 6 7 5 358 353 354 355 355 2 2 357 350 346 346 343 340 337 331 330 327 324 314 309 306 306 302 304 299 295 294
341 348 351 346 348 350 349 353 353 355 358 359 1 360 354 350 348 349 350 353 353 353 353 349 339 332 333 336 334 329 322 318 314 309 307 307 304 303 302 299 297 296 295
336 340 337 333 338 340 340 342 342 343 345 346 345 348 346 344 342 344 345 345 342 342 339 336 333 332 327 326 325 323 317 314 310 304 301 304 303 299 298 295 296 300 301
322 327 330 330 330 327 328 328 331 334 336 335 335 341 343 341 338 338 338 336 333 331 327 325 324 323 319 319 322 319 315 309 307 306 304 302 303 300 299 298 301 302 303
328 324 317 320 320 320 321 322 322 321 325 329 330 331 331 331 327 326 327 329 327 322 318 316 315 314 312 312 315 314 313 310 307 308 307 302 300 298 298 298 301 300 300
315 318 316 316 316 317 316 317 316 312 315 321 322 322 321 320 318 318 320 322 321 317 312 310 309 309 308 309 312 312 310 311 310 307 306 304 302 298 297 300 299 298 299
298 304 307 308 310 312 314 312 310 307 307 308 310 312 313 311 310 312 314 316 316 314 308 308 307 307 305 305 307 309 309 309 311 309 308 307 306 303 298 299 298 298 297
295 296 298 303 305 305 309 309 306 302 301 301 301 303 306 306 308 309 308 309 309 307 303 305 305 304 303 303 304 305 307 306 307 307 306 306 306 304 301 298 296 297 298
294 295 296 299 298 298 301 303 301 300 298 297 296 297 300 303 306 307 305 305 304 303 303 305 304 300 301 301 302 303 302 301 302 304 304 305 303 303 299 297 295 295 296
286 285 286 290 291 290 293 296 298 297 295 294 294 294 296 298 300 301 302 302 303 304 304 304 304 301 300 300 300 300 300 300 300 301 303 304 302 300 298 296 295 294 295
279 282 283 284 286 288 290 293 293 292 290 289 290 292 293 295 296 296 298 302 305 301 299 300 298 297 297 298 298 298 299 299 300 300 301 302 303 300 298 296 295 295 295
278 280 283 282 283 286 289 289 290 289 287 288 289 291 292 293 294 295 298 301 302 301 299 296 294 294 293 294 295 295 297 297 298 299 299 298 300 301 298 297 296 295 295
276 278 281 281 282 286 288 286 286 284 285 285 286 288 292 293 294 297 298 299 300 300 298 297 294 291 290 291 292 293 295 295 296 297 298 297 297 298 298 297 296 295 294
274 275 278 279 281 283 284 284 284 282 282 282 283 286 290 292 295 296 296 297 298 299 299 299 297 292 290 291 291 292 294 295 295 297 297 296 295 295 295 296 295 295 294
275 277 278 278 282 281 282 283 280 282 283 284 285 286 288 290 291 293 293 294 295 296 298 298 298 294 292 292 291 292 294 294 294 296 298 296 295 294 294 295 296 296 294
276 278 280 282 282 281 280 281 281 283 283 283 284 284 286 287 288 289 291 291 292 293 295 295 296 295 293 292 291 291 292 294 295 296 297 296 294 295 295 295 295 297 294
277 279 281 283 285 284 283 283 281 280 281 282 282 284 285 286 286 286 288 289 290 291 290 292 294 294 293 293 293 292 292 293 295 295 295 293 294 295 294 294 294 295 295
278 280 281 282 283 283 285 284 282 280 280 280 280 282 283 285 287 287 287 287 289 289 292 291 292 293 293 293 292 292 292 292 293 293 292 292 292 293 292 292 293 293 293
278 280 280 282 281 282 282 281 280 279 279 279 280 282 282 284 286 286 287 286 286 287 289 290 290 290 290 291 290 291 292 292 291 291 291 292 291 291 291 291 292 292 292
277 279 280 280 280 281 281 281 279 278 277 278 279 279 281 284 285 285 286 285 284 285 287 287 288 289 291 291 289 290 291 292 291 290 289 289 289 290 290 290 291 290 291
276 278 279 278 280 281 281 281 281 280 278 277 278 280 282 283 284 284 284 285 285 286 286 287 287 288 290 290 289 290 291 291 289 289 288 287 287 288 288 288 289 290 291
275 278 277 276 276 278 280 278 280 280 278 276 276 279 281 283 284 284 284 285 286 285 284 287 286 287 289 289 289 288 288 288 288 287 287 288 287 286 286 287 289 291 293
275 276 276 276 278 278 279 279 280 279 278 277 278 279 280 282 283 284 284 283 283 284 286 289 286 287 288 288 288 286 286 286 286 285 286 287 287 286 285 286 288 291 293
276 277 278 278 278 278 279 279 279 279 279 279 278 278 280 282 283 284 283 284 285 284 285 287 286 285 285 286 287 286 285 284 286 285 284 285 286 285 284 285 287 290 292
Height
5913 5912 5910 5909 5908 5907 5907 5906 5905 5904 5903 5902 5901 5900 5899 5898 5896 5895 5894 5892 5891 5890 5889 5888 5887 5886 5885 5883 5883 5881 5881 5880 5879 5878 5877 5876 5876 5875 5874 5873 5872 5870 5869
5913 5912 5910 5909 5908 5907 5907 5906 5905 5904 5903 5902 5901 5899 5898 5897 5896 5894 5893 5892 5891 5889 5888 5887 5886 5885 5884 5883 5882 5880 5880 5879 5878 5877 5876 5875 5875 5873 5872 5871 5869 5868 5866
5913 5912 5910 5909 5909 5908 5907 5906 5905 5904 5903 5901 5900 5899 5898 5896 5895 5894 5892 5891 5890 5889 5887 5886 5885 5884 5883 5882 5881 5880 5879 5878 5877 5875 5875 5873 5872 5871 5870 5868 5867 5865 5863
5912 5911 5910 5909 5908 5907 5906 5905 5904 5903 5902 5901 5899 5898 5897 5896 5895 5893 5892 5890 5889 5888 5886 5885 5884 5883 5882 5881 5879 5878 5877 5876 5875 5874 5872 5871 5870 5868 5867 5866 5864 5862 5861
5910 5910 5909 5908 5907 5906 5905 5904 5903 5902 5901 5900 5898 5897 5896 5895 5893 5892 5891 5889 5888 5887 5885 5884 5883 5882 5880 5879 5878 5877 5875 5874 5872 5871 5869 5868 5867 5865 5864 5863 5861 5860 5857
5908 5908 5907 5907 5906 5905 5904 5903 5902 5900 5899 5898 5897 5896 5894 5893 5892 5891 5890 5888 5887 5885 5884 5883 5882 5880 5878 5877 5875 5874 5873 5871 5870 5868 5867 5865 5864 5862 5861 5859 5857 5856 5854
5906 5906 5905 5905 5904 5903 5902 5901 5900 5899 5898 5897 5895 5894 5893 5892 5890 5889 5888 5886 5885 5884 5882 5881 5880 5878 5876 5875 5873 5871 5870 5868 5867 5865 5863 5862 5860 5859 5857 5855 5853 5852 5851
5905 5904 5903 5903 5902 5901 5900 5899 5898 5897 5896 5895 5893 5892 5891 5890 5888 5887 5885 5884 5882 5881 5880 5878 5877 5875 5874 5872 5870 5868 5867 5865 5863 5862 5860 5858 5856 5854 5853 5851 5850 5848 5847
5902 5902 5901 5900 5899 5898 5897 5896 5895 5894 5893 5892 5891 5890 5888 5887 5886 5884 5883 5881 5880 5878 5876 5875 5874 5872 5870 5869 5867 5865 5863 5861 5860 5858 5856 5854 5852 5850 5848 5847 5845 5844 5842
5899 5898 5898 5897 5897 5896 5895 5894 5893 5892 5891 5890 5888 5887 5886 5884 5883 5881 5880 5878 5876 5874 5873 5871 5870 5868 5867 5865 5863 5861 5859 5857 5855 5853 5851 5850 5848 5845 5844 5842 5841 5839 5837
5895 5895 5894 5894 5894 5893 5892 5891 5890 5889 5888 5887 5885 5884 5883 5881 5879 5878 5876 5874 5872 5870 5869 5867 5866 5864 5862 5861 5859 5857 5855 5853 5851 5849 5847 5845 5843 5841 5839 5837 5835 5833 5832
5891 5891 5891 5891 5890 5889 5888 5887 5886 5885 5884 5883 5882 5880 5879 5877 5875 5874 5872 5870 5868 5866 5865 5863 5861 5860 5858 5856 5854 5852 5850 5848 5846 5844 5842 5840 5838 5836 5834 5832 5830 5828 5826
5887 5888 5888 5887 5886 5885 5885 5884 5883 5881 5880 5879 5877 5876 5875 5873 5871 5869 5867 5865 5864 5862 5860 5858 5857 5855 5853 5851 5849 5847 5845 5842 5840 5838 5836 5834 5832 5830 5828 5826 5824 5822 5820
5883 5883 5883 5882 5882 5881 5880 5879 5878 5877 5875 5874 5873 5871 5870 5868 5866 5864 5862 5860 5859 5857 5855 5853 5851 5849 5847 5845 5843 5841 5839 5837 5835 5833 5831 5828 5826 5824 5822 5820 5818 5815 5814
5878 5878 5878 5877 5876 5875 5874 5873 5873 5871 5870 5869 5868 5866 5864 5862 5861 5859 5857 5855 5853 5851 5849 5847 5845 5842 5841 5839 5837 5835 5833 5831 5829 5827 5824 5822 5820 5818 5815 5813 5811 5809 5807
5873 5873 5873 5872 5871 5870 5869 5868 5867 5866 5865 5863 5862 5860 5858 5857 5855 5854 5852 5850 5847 5845 5843 5840 5838 5836 5834 5833 5831 5829 5827 5825 5823 5820 5818 5816 5813 5811 5809 5807 5805 5803 5801
5867 5867 5866 5866 5865 5864 5863 5861 5860 5859 5858 5857 5856 5854 5852 5851 5849 5847 5845 5843 5841 5839 5837 5834 5832 5829 5828 5826 5824 5822 5820 5818 5816 5814 5811 5809 5806 5804 5802 5800 5798 5796 5794
5861 5861 5860 5859 5858 5857 5856 5854 5854 5853 5852 5850 5849 5847 5846 5844 5842 5840 5838 5836 5834 5832 5830 5828 5826 5823 5821 5819 5817 5815 5814 5811 5809 5807 5805 5802 5800 5797 5795 5793 5791 5789 5787
5854 5854 5853 5852 5851 5850 5849 5847 5846 5845 5844 5843 5841 5840 5838 5837 5834 5831 5830 5829 5827 5825 5823 5821 5819 5817 5815 5813 5810 5808 5806 5804 5802 5800 5797 5795 5793 5790 5788 5786 5784 5782 5780
5847 5846 5846 5845 5844 5843 5841 5839 5838 5837 5836 5835 5833 5832 5831 5829 5827 5825 5823 5821 5819 5817 5816 5814 5812 5810 5808 5806 5804 5801 5799 5797 5795 5792 5790 5788 5786 5784 5781 5779 5777 5775 5773
5838 5838 5837 5835 5835 5834 5833 5832 5831 5829 5828 5825 5825 5824 5823 5821 5819 5817 5815 5813 5811 5810 5808 5806 5805 5803 5801 5799 5796 5794 5792 5789 5787 5785 5782 5780 5778 5776 5774 5772 5770 5767 5765
5830 5829 5828 5827 5826 5825 5824 5823 5822 5821 5819 5818 5817 5816 5814 5812 5810 5808 5807 5804 5802 5801 5800 5798 5796 5795 5793 5791 5789 5786 5784 5782 5779 5777 5775 5773 5771 5769 5767 5764 5762 5760 5758
5821 5820 5819 5818 5817 5816 5815 5814 5813 5812 5811 5809 5808 5806 5805 5804 5801 5800 5798 5795 5793 5792 5791 5790 5788 5786 5784 5782 5780 5778 5776 5773 5771 5769 5767 5765 5763 5761 5759 5757 5754 5752 5750
5812 5811 5810 5809 5809 5807 5806 5805 5804 5803 5802 5801 5799 5797 5796 5794 5793 5791 5789 5787 5785 5783 5782 5781 5779 5778 5775 5774 5772 5769 5767 5765 5763 5761 5759 5757 5754 5752 5750 5748 5746 5744 5742
5802 5801 5800 5800 5800 5799 5797 5796 5795 5794 5792 5791 5790 5788 5787 5785 5783 5781 5779 5778 5776 5775 5773 5771 5770 5769 5767 5765 5763 5761 5758 5756 5754 5752 5750 5748 5746 5744 5742 5740 5738 5736 5734
5793 5792 5791 5790 5790 5789 5787 5786 5785 5784 5783 5782 5780 5779 5777 5775 5774 5772 5770 5768 5767 5765 5764 5762 5760 5759 5757 5756 5754 5752 5750 5748 5746 5744 5742 5740 5737 5735 5733 5732 5730 5728 5726